Temp
27 22 21 23 25 27 29 22 21 21 23 22 24 23 22 25 25 26 26 26 25 24 24 24 23 23 22 21 20 20 20 19 19 19 19 19 20 19 19 20 20 20 20 21
24 22 25 27 28 28 29 23 21 23 25 22 26 24 23 25 26 26 26 26 25 25 24 24 24 22 22 21 20 20 20 19 19 20 19 19 20 20 20 20 20 20 20 21
23 25 28 28 28 28 28 29 27 24 22 26 27 25 24 22 21 21 26 26 26 26 24 24 24 23 22 21 21 20 20 20 19 20 20 19 19 20 20 20 20 20 20 20
25 28 29 28 28 28 26 30 30 28 26 24 28 22 22 22 21 23 26 26 26 26 25 24 24 23 22 22 22 21 21 20 20 20 20 20 19 20 20 20 20 20 19 19
26 27 27 28 28 29 27 30 29 29 26 25 27 25 22 22 22 23 24 26 26 26 25 25 24 23 23 22 22 21 21 20 20 20 20 20 20 20 20 20 20 20 20 19
27 31 29 28 30 29 30 29 27 27 26 23 25 25 21 21 24 24 24 26 26 26 25 25 24 24 23 23 22 21 21 21 20 19 20 19 20 20 20 20 20 20 20 19
26 27 28 30 29 29 29 26 21 21 21 22 24 26 24 23 22 26 25 27 26 26 26 25 25 24 23 22 22 22 21 21 20 20 20 19 20 20 20 20 20 20 20 19
23 24 28 29 27 26 26 24 20 22 21 22 24 25 22 25 25 25 28 29 28 27 27 26 25 25 24 22 22 22 22 22 21 20 20 20 20 20 20 19 20 20 20 20
24 25 29 30 29 27 25 24 25 23 24 23 21 23 26 26 25 25 25 28 28 27 26 25 25 25 25 23 21 23 22 22 22 21 20 20 20 20 20 20 19 20 20 20
25 24 27 30 30 28 26 26 24 22 23 23 22 24 23 26 28 25 24 25 26 27 26 24 23 25 25 23 22 23 23 23 22 21 21 21 21 20 20 20 20 20 20 20
27 24 26 27 28 26 26 25 25 23 22 21 22 22 25 23 26 23 21 21 23 25 26 23 23 23 25 24 23 23 23 23 23 22 21 21 21 21 21 20 20 19 20 20
27 25 23 25 28 29 26 25 24 21 22 22 22 23 25 25 24 21 20 18 22 24 26 23 21 23 24 24 24 23 23 23 23 22 22 21 21 21 21 20 20 20 20 20
25 24 23 24 25 27 27 27 26 25 24 24 23 24 26 21 19 19 20 21 21 24 19 20 24 26 25 25 24 23 23 23 23 22 22 21 20 20 20 20 20 20 20 20
27 24 24 22 24 27 26 28 27 25 23 23 24 26 26 21 19 18 20 25 26 24 23 22 25 26 26 25 24 23 23 23 23 22 22 21 21 20 20 20 20 20 20 20
25 23 23 24 26 27 27 28 28 26 25 25 27 26 26 23 19 19 17 23 25 28 26 25 25 26 25 25 24 24 23 23 22 22 22 22 21 20 20 20 19 19 19 19
22 21 23 22 25 26 26 27 28 28 27 26 27 26 25 25 22 21 18 22 19 22 23 24 25 24 24 24 23 23 23 22 22 22 22 21 20 20 20 19 19 19 19 19
20 20 20 21 24 25 23 25 27 27 27 23 22 25 24 24 22 22 21 17 19 23 23 24 24 23 23 23 22 22 21 21 21 21 21 20 20 19 19 19 18 18 18 19
19 18 20 20 21 20 25 26 28 27 24 23 23 25 24 24 23 22 21 18 21 19 23 23 22 22 22 21 20 20 20 20 20 20 19 19 19 18 18 18 18 19 19 18
20 19 18 18 19 21 24 24 26 25 25 25 25 26 25 25 24 19 24 26 25 22 23 22 18 22 21 21 19 19 19 18 18 18 18 17 16 17 17 18 18 18 19 19
21 20 18 18 18 20 23 21 25 25 20 25 26 26 25 25 20 19 23 24 22 22 19 18 19 22 20 19 19 18 18 18 17 17 17 16 16 17 18 18 19 19 19 19
19 18 19 19 18 20 19 21 25 22 21 22 22 27 26 21 21 23 22 21 22 22 21 22 19 21 19 18 18 17 17 17 17 16 16 16 16 17 18 18 18 19 19 19
18 18 16 19 19 19 22 21 21 21 22 20 23 24 23 24 24 23 22 21 19 19 18 17 19 18 18 17 17 16 17 17 16 16 16 16 16 17 17 17 17 17 17 16
15 13 13 15 17 20 22 23 24 23 25 23 22 22 24 24 23 23 22 21 21 20 20 19 19 18 17 17 17 16 16 16 16 15 15 15 15 16 16 16 15 15 14 11
15 12 12 14 16 16 18 20 20 23 26 25 23 22 24 23 23 22 22 21 20 20 19 19 18 17 16 16 16 15 16 15 15 15 15 14 15 15 15 15 14 14 12 10
15 13 13 14 14 16 18 17 18 21 24 25 24 22 24 24 23 22 22 21 20 18 17 17 17 16 16 15 15 14 14 14 15 15 14 14 14 14 14 14 13 11 9 8
14 13 13 13 13 13 13 15 15 19 20 20 21 24 24 24 23 22 20 20 19 18 17 16 15 15 14 14 15 14 14 14 14 14 14 13 14 13 13 12 9 7 7 8
Height
1486 1497 1505 1496 1487 1481 1480 1500 1504 1501 1485 1499 1490 1492 1494 1494 1501 1500 1501 1500 1505 1510 1515 1520 1524 1526 1530 1534 1537 1540 1544 1548 1552 1556 1559 1562 1564 1568 1570 1572 1574 1577 1578 1580
1488 1496 1484 1479 1477 1477 1474 1496 1499 1497 1486 1502 1481 1487 1492 1493 1499 1499 1502 1503 1502 1507 1513 1518 1522 1524 1526 1530 1532 1537 1541 1544 1548 1553 1557 1560 1562 1566 1570 1573 1573 1576 1578 1580
1488 1478 1473 1474 1475 1476 1473 1474 1479 1489 1489 1485 1477 1487 1492 1495 1493 1498 1495 1501 1500 1503 1508 1514 1518 1522 1524 1529 1531 1533 1537 1541 1546 1551 1555 1559 1562 1565 1568 1570 1572 1575 1577 1578
1477 1466 1467 1469 1472 1470 1486 1461 1465 1472 1485 1505 1470 1517 1493 1487 1494 1491 1490 1493 1496 1499 1503 1509 1514 1520 1521 1523 1529 1532 1534 1539 1543 1548 1551 1555 1558 1562 1565 1567 1570 1573 1575 1576
1474 1466 1465 1467 1465 1461 1474 1459 1465 1467 1478 1483 1480 1494 1493 1485 1492 1486 1484 1484 1488 1493 1497 1504 1508 1513 1517 1521 1523 1528 1531 1536 1540 1544 1548 1552 1555 1560 1562 1565 1568 1569 1572 1574
1464 1455 1456 1456 1453 1455 1456 1463 1466 1468 1476 1506 1483 1488 1502 1486 1473 1475 1476 1476 1479 1487 1493 1498 1503 1509 1511 1516 1520 1523 1528 1532 1537 1541 1544 1548 1552 1556 1559 1561 1564 1566 1568 1570
1466 1458 1450 1449 1455 1453 1457 1473 1514 1516 1514 1514 1478 1480 1484 1471 1462 1456 1457 1466 1472 1478 1488 1494 1499 1505 1509 1515 1517 1521 1524 1528 1534 1537 1541 1544 1548 1553 1556 1557 1559 1562 1565 1566
1484 1486 1452 1441 1451 1462 1464 1474 1511 1519 1519 1504 1476 1488 1484 1462 1458 1457 1454 1456 1467 1474 1481 1485 1494 1502 1503 1509 1514 1518 1521 1525 1530 1534 1537 1541 1545 1549 1551 1553 1556 1558 1561 1564
1476 1469 1442 1441 1440 1449 1461 1476 1461 1485 1477 1493 1490 1473 1456 1447 1452 1453 1456 1460 1466 1471 1477 1482 1491 1496 1500 1505 1511 1513 1518 1522 1526 1530 1534 1537 1541 1545 1547 1550 1553 1555 1558 1561
1455 1475 1443 1436 1435 1440 1451 1449 1478 1481 1505 1508 1492 1475 1473 1450 1447 1455 1455 1457 1464 1470 1471 1483 1492 1492 1494 1500 1507 1511 1517 1519 1523 1526 1530 1533 1537 1540 1543 1546 1548 1550 1553 1556
1440 1456 1451 1438 1445 1452 1454 1461 1459 1467 1477 1502 1500 1486 1438 1444 1439 1458 1466 1460 1463 1463 1466 1485 1494 1500 1494 1497 1503 1508 1514 1518 1521 1523 1526 1529 1533 1536 1538 1540 1542 1544 1548 1550
1428 1443 1463 1451 1431 1431 1435 1447 1452 1484 1484 1470 1475 1472 1430 1425 1438 1453 1463 1462 1462 1468 1468 1486 1484 1495 1491 1493 1500 1505 1511 1515 1518 1521 1523 1525 1528 1530 1533 1535 1536 1538 1541 1544
1432 1443 1466 1457 1445 1430 1438 1435 1439 1444 1451 1467 1481 1466 1424 1436 1448 1451 1453 1455 1460 1465 1466 1474 1478 1483 1483 1488 1498 1503 1508 1513 1516 1518 1519 1521 1524 1525 1527 1527 1529 1530 1533 1537
1428 1438 1447 1468 1455 1438 1442 1429 1430 1441 1465 1462 1458 1446 1437 1449 1453 1459 1450 1442 1449 1460 1470 1481 1474 1478 1479 1485 1494 1501 1505 1509 1512 1514 1514 1517 1519 1521 1522 1522 1525 1526 1528 1533
1432 1448 1441 1438 1433 1434 1434 1430 1428 1441 1440 1455 1442 1440 1434 1438 1444 1446 1452 1452 1447 1445 1460 1467 1470 1472 1477 1486 1494 1500 1503 1505 1508 1511 1512 1515 1516 1518 1519 1518 1521 1521 1523 1525
1436 1450 1439 1445 1432 1434 1438 1432 1426 1426 1428 1431 1431 1435 1421 1427 1435 1440 1443 1444 1458 1454 1457 1466 1461 1467 1475 1483 1491 1497 1502 1505 1506 1508 1510 1513 1513 1514 1514 1514 1516 1518 1520 1510
1448 1451 1451 1457 1438 1437 1449 1434 1426 1422 1422 1437 1450 1433 1422 1426 1430 1430 1445 1463 1468 1465 1465 1464 1467 1473 1476 1481 1488 1494 1498 1501 1502 1506 1508 1509 1509 1509 1509 1510 1512 1514 1516 1517
1450 1454 1450 1459 1451 1469 1431 1421 1418 1418 1422 1425 1428 1419 1414 1416 1429 1435 1442 1450 1466 1474 1469 1474 1474 1476 1477 1482 1487 1492 1495 1499 1501 1503 1504 1504 1504 1504 1504 1504 1505 1506 1508 1509
1443 1450 1460 1464 1462 1443 1432 1428 1422 1420 1423 1418 1423 1425 1416 1421 1424 1434 1437 1440 1448 1460 1463 1469 1478 1476 1478 1483 1487 1492 1497 1498 1500 1503 1503 1503 1503 1503 1503 1502 1501 1501 1500 1500
1434 1440 1455 1459 1467 1464 1434 1431 1418 1415 1442 1412 1420 1429 1424 1425 1439 1438 1435 1438 1444 1452 1459 1470 1481 1478 1481 1487 1488 1490 1494 1496 1497 1501 1502 1502 1501 1500 1499 1498 1497 1495 1493 1491
1442 1445 1448 1452 1458 1442 1430 1430 1426 1444 1444 1424 1425 1418 1425 1430 1429 1435 1441 1443 1447 1454 1459 1464 1473 1477 1485 1486 1486 1488 1492 1494 1497 1501 1501 1499 1498 1497 1496 1494 1491 1488 1484 1480
1446 1448 1451 1444 1451 1451 1423 1427 1437 1426 1421 1429 1418 1415 1420 1428 1432 1437 1443 1447 1451 1455 1462 1469 1473 1475 1478 1481 1485 1488 1491 1493 1496 1499 1498 1497 1496 1496 1494 1490 1486 1481 1475 1469
1454 1462 1461 1453 1440 1422 1419 1418 1418 1418 1417 1424 1426 1429 1421 1428 1435 1439 1446 1450 1454 1457 1462 1465 1468 1471 1477 1482 1484 1486 1489 1493 1495 1496 1496 1495 1495 1494 1491 1487 1482 1476 1469 1461
1452 1453 1457 1454 1435 1427 1422 1418 1418 1417 1420 1427 1434 1438 1426 1430 1436 1442 1447 1452 1454 1457 1459 1464 1468 1473 1477 1479 1482 1484 1488 1491 1493 1494 1493 1494 1494 1492 1489 1485 1480 1474 1466 1458
1447 1449 1452 1449 1438 1423 1422 1434 1429 1420 1419 1426 1428 1434 1430 1432 1437 1441 1446 1451 1455 1460 1463 1466 1469 1472 1475 1478 1481 1483 1486 1489 1491 1492 1493 1494 1493 1491 1487 1484 1480 1474 1468 1461
1439 1439 1444 1442 1435 1437 1425 1434 1444 1431 1429 1432 1433 1431 1431 1432 1436 1440 1445 1449 1452 1455 1459 1462 1466 1469 1473 1476 1479 1482 1486 1487 1488 1490 1492 1493 1493 1491 1489 1486 1483 1479 1474 1468
Wind_Speed
16 4 7 12 13 17 7 11 8 8 13 9 20 10 14 18 20 15 18 28 33 33 32 27 29 29 29 23 24 21 19 21 19 18 22 18 19 17 14 12 12 9 5 18
7 9 12 15 15 15 14 13 8 6 10 9 11 16 14 17 12 20 19 26 31 32 33 31 31 32 30 29 26 24 21 24 25 17 22 16 13 16 12 14 15 13 10 11
10 13 16 16 13 11 10 3 10 8 19 22 9 3 18 5 24 30 29 24 31 32 36 34 36 35 35 34 31 29 25 24 25 19 23 19 14 13 15 16 17 17 13 15
9 19 16 14 10 7 7 6 7 15 8 5 6 4 8 14 14 15 29 29 30 29 38 35 40 38 38 37 30 32 32 29 26 20 26 22 16 19 20 17 15 10 14 14
11 12 11 10 7 7 8 7 7 4 8 6 8 1 3 10 11 14 18 30 36 36 43 40 44 39 42 38 31 29 29 31 28 27 27 24 22 18 16 19 16 12 16 16
13 23 7 9 10 8 7 6 8 6 1 2 9 6 4 9 14 13 17 27 39 36 39 39 39 41 43 39 34 30 28 26 28 30 28 26 25 23 16 18 19 16 17 15
14 12 10 10 5 7 5 1 4 4 4 6 6 4 8 8 8 15 17 26 41 40 36 43 39 36 35 41 38 33 28 27 28 31 30 28 24 27 21 18 20 17 18 19
8 9 16 12 10 9 7 9 6 6 5 5 5 4 7 9 27 26 24 34 34 40 40 47 43 39 32 40 40 36 30 26 27 29 34 29 25 28 28 22 20 19 17 18
5 13 13 11 10 11 9 5 11 6 7 1 4 5 6 2 8 21 24 14 16 35 35 42 44 34 44 36 45 38 31 27 27 29 31 32 29 27 27 28 24 19 19 14
10 9 14 11 12 9 9 7 3 3 5 5 5 3 5 4 9 3 8 19 21 24 32 27 39 40 45 42 44 39 30 27 24 29 28 28 27 27 27 26 26 25 20 21
15 9 14 7 4 9 3 6 4 2 4 6 5 5 7 13 16 10 10 23 27 32 24 14 25 37 42 42 44 40 35 29 24 25 28 27 26 25 24 25 24 27 24 21
11 8 7 11 11 7 9 11 9 5 10 4 5 6 7 11 10 28 22 19 23 16 22 19 52 44 46 42 43 39 34 30 25 22 25 28 26 24 25 26 28 25 24 24
5 2 2 6 8 10 7 9 8 5 5 9 2 5 2 21 18 28 34 30 35 32 11 19 47 46 41 35 35 37 32 27 25 24 21 24 26 25 25 25 26 28 28 26
9 4 4 7 8 3 7 7 9 7 3 6 6 4 6 14 14 10 17 36 30 38 26 19 31 40 35 32 31 32 29 28 26 24 21 22 22 26 27 28 26 27 26 27
2 3 6 8 10 9 13 9 12 7 7 4 5 4 4 12 14 20 19 18 27 33 33 27 37 33 29 26 29 28 32 29 26 22 18 18 21 22 25 27 26 25 24 26
9 6 6 7 13 11 15 15 15 10 7 9 14 4 6 12 26 28 40 37 29 24 21 27 30 32 31 30 27 25 25 22 22 17 18 17 16 20 23 25 25 23 24 28
5 6 4 7 9 11 10 9 9 6 6 5 5 8 6 4 14 30 24 17 15 9 17 25 25 22 22 21 21 19 19 19 20 18 17 16 17 17 17 18 20 21 24 25
7 7 2 3 6 9 4 11 15 5 0 4 13 11 12 13 28 30 33 37 23 32 24 16 20 19 17 16 16 17 17 16 14 16 18 20 17 16 18 18 17 18 21 24
7 4 4 3 5 9 11 6 5 3 4 1 8 8 7 17 25 13 32 32 35 30 19 11 7 22 22 20 18 17 14 15 13 15 15 13 11 15 17 18 20 22 25 27
12 9 5 4 4 5 2 5 9 3 5 7 15 7 9 14 5 4 13 16 26 28 35 31 21 16 17 21 23 18 15 15 16 13 10 10 8 7 10 14 17 21 24 27
5 4 13 10 7 6 5 3 9 4 4 19 31 20 20 5 13 25 30 30 25 28 25 28 21 20 18 15 14 18 16 14 11 9 7 3 1 4 7 11 16 21 26 30
2 4 3 7 13 18 10 2 7 5 5 14 22 36 37 37 33 36 37 33 30 27 29 32 25 19 15 13 16 16 15 11 10 8 6 3 1 6 10 15 19 23 26 29
2 4 5 3 5 5 20 10 14 5 6 15 17 11 40 36 32 27 27 27 22 24 20 18 20 22 19 15 12 17 13 11 9 10 8 7 8 13 18 22 23 24 27 25
3 7 4 8 5 9 12 9 7 13 17 6 4 15 31 32 28 26 22 23 22 20 18 16 21 21 17 12 12 17 15 11 14 13 11 10 11 16 22 24 26 29 31 26
5 7 5 11 5 16 9 18 20 12 12 5 13 14 25 24 24 26 24 25 24 24 20 17 15 13 11 15 20 21 18 16 16 13 11 10 14 17 20 22 27 31 33 30
7 6 4 4 8 0 18 13 20 16 10 26 37 14 16 21 20 20 21 18 17 16 14 12 10 12 14 18 20 21 19 16 15 13 8 8 10 14 17 22 25 26 29 30
Wind_Direction
230 189 228 222 236 245 234 150 160 222 251 207 243 204 219 205 223 199 199 162 169 172 176 176 178 185 179 180 173 176 177 179 178 177 187 180 175 176 190 211 204 207 183 194
258 220 232 244 248 251 263 159 196 225 262 228 258 201 196 184 209 196 203 182 170 176 181 182 176 179 182 176 175 179 192 191 192 194 192 192 178 188 204 204 202 215 219 206
215 247 221 240 259 270 270 261 132 152 229 222 263 18 175 183 159 218 199 192 182 182 176 179 184 181 181 186 189 190 195 198 202 203 191 191 212 199 206 211 210 208 212 216
230 244 254 236 232 250 275 237 237 160 159 226 223 227 210 173 181 222 196 195 189 192 186 186 185 186 194 198 201 196 198 204 208 199 189 195 209 199 208 213 208 214 209 214
240 247 256 264 266 222 247 284 288 254 187 180 270 167 292 148 206 208 202 193 199 201 185 186 192 191 197 198 198 197 202 205 208 201 190 201 204 201 204 216 224 240 212 218
267 262 265 225 238 241 266 316 303 304 209 196 230 198 204 193 205 193 212 211 199 202 192 192 191 187 197 200 199 197 200 203 202 201 196 204 207 203 204 215 221 225 222 231
279 273 269 274 271 296 192 221 318 324 331 239 14 25 14 259 225 201 201 199 198 195 192 182 187 188 190 198 199 200 200 202 203 202 201 201 204 203 201 214 220 228 227 224
234 275 235 222 196 201 243 174 172 226 225 237 344 156 197 216 235 248 206 215 196 189 190 186 187 189 185 193 202 201 200 204 205 200 202 208 207 202 209 220 222 227 226 238
277 280 297 285 207 161 251 248 217 240 264 277 220 284 288 301 209 230 228 157 172 181 185 185 191 193 209 202 202 205 200 206 209 206 201 210 216 215 213 222 224 227 231 226
234 263 276 298 182 199 176 237 278 298 240 262 232 240 228 217 175 263 146 152 165 179 170 190 199 202 193 198 200 209 208 207 211 212 209 208 213 219 222 225 227 230 236 238
212 202 269 313 218 191 215 252 263 210 178 202 255 246 218 191 207 118 83 124 168 204 211 196 233 221 199 194 202 206 206 207 212 213 215 215 214 215 217 221 222 224 226 232
209 193 221 235 268 223 197 196 202 155 282 247 196 269 319 196 120 124 115 130 143 171 196 251 222 203 191 190 195 203 205 211 216 219 218 218 221 222 222 222 225 229 227 222
330 285 218 303 319 307 209 225 206 214 212 251 223 271 175 108 115 132 131 142 132 146 156 286 177 176 174 179 194 203 205 213 219 219 225 226 227 230 234 233 225 228 232 231
1 302 169 208 216 265 317 208 211 220 221 251 238 167 118 114 134 161 169 165 179 177 140 206 176 177 180 186 195 199 209 213 218 221 232 229 231 234 239 243 242 239 233 238
148 262 309 298 292 310 309 270 261 248 237 223 241 126 192 141 163 169 146 154 175 160 166 177 171 173 174 182 192 203 205 209 219 227 231 235 235 241 244 250 248 250 247 248
337 296 275 284 295 298 302 293 261 261 303 331 293 187 173 142 154 148 166 173 195 183 183 167 143 150 168 174 171 169 185 191 199 207 219 230 238 243 250 253 256 257 257 261
310 336 5 271 272 295 273 273 289 254 252 89 347 276 148 133 150 164 149 72 122 83 149 158 161 160 161 171 185 188 189 193 203 202 204 220 232 243 248 252 254 255 251 256
300 323 311 280 333 257 279 276 292 235 234 22 332 173 160 148 124 158 152 129 147 165 166 166 162 166 174 179 179 183 191 195 196 205 209 216 227 237 239 244 245 247 251 252
252 273 299 209 256 291 314 1 305 180 273 346 317 294 99 119 114 134 166 179 193 185 164 146 206 174 173 179 178 186 194 176 180 197 208 217 236 247 262 265 268 269 269 268
225 222 207 292 291 260 277 321 338 66 313 301 325 242 186 148 102 232 164 169 171 143 141 164 198 200 185 182 173 161 178 188 192 213 221 246 263 270 282 288 288 283 278 274
228 241 232 233 240 257 153 232 293 113 241 360 314 209 175 113 123 150 141 131 138 168 161 174 194 191 187 183 177 168 186 190 199 209 252 215 262 321 330 321 309 298 289 280
274 222 260 228 231 246 147 97 197 225 26 18 40 121 115 119 119 116 122 129 133 138 157 162 164 171 182 178 170 169 190 198 207 225 191 164 12 0 351 343 339 335 321 298
356 31 306 324 312 267 188 202 189 181 345 343 2 130 127 124 126 128 126 132 141 143 140 165 173 177 179 184 194 183 191 200 220 169 136 109 75 43 24 12 4 354 344 322
41 79 324 314 322 325 290 148 155 185 189 290 267 207 132 134 137 141 146 137 142 158 173 180 181 184 183 181 181 177 180 187 167 140 119 100 60 40 33 27 23 18 13 2
224 150 193 253 333 347 34 20 58 93 138 208 263 283 140 138 145 148 154 159 154 149 158 179 190 184 177 171 173 170 173 173 156 138 118 92 59 45 43 34 31 26 27 19
187 180 173 243 127 84 293 318 341 133 179 234 250 148 131 144 142 151 145 157 168 173 180 182 181 167 157 168 176 175 173 171 159 156 131 91 71 66 54 49 50 46 39 34